Location: Bailleul
(50.3375°N, 2.8513°E)
Time: 05:23:17
(UTC+00:00)

ATLAS 2AS CENTAUR R/B - Pass Details

Date: 19 April 2021
Orbit: 949 x 1263 km, 63.7° (Epoch: 07 May)

Event Time Altitude Azimuth Distance (km) Brightness Sun altitude
Rises 19:13:31 0° 208° (SSW) 4,192 5.9 -4.4°
Reaches altitude 10° 19:16:19 10° 206° (SSW) 3,238 5.3 -4.8°
Maximum altitude 19:24:08 69° 126° (SE) 1,340 3.1 -5.9°
Drops below altitude 10° 19:31:50 10° 46° (NE) 3,187 5.0 -7.0°
Sets 19:34:33 0° 44° (NE) 4,123 5.6 -7.4°
